Parsons, KS

9:45 PM CDT on May 26, 2017 (GMT -0500)
Tri-City

Weather History for KPPF - February, 2014

Change the Weather History Date:

Tuesday, February 25, 2014

  Actual Average Record
Temperature  
Mean Temperature 31 °F -  
Max Temperature 39 °F 51 °F 79 °F (1956)
Min Temperature 21 °F 29 °F 4 °F (1965)
Degree Days  
Heating Degree Days 34    
Moisture  
Dew Point 16 °F    
Average Humidity 56    
Maximum Humidity 71    
Minimum Humidity 39    
Precipitation  
Precipitation 0.00 in - - ()
Sea Level Pressure  
Sea Level Pressure 30.32 in    
Wind  
Wind Speed 9 mph (NNE)    
Max Wind Speed 21 mph    
Max Gust Speed 28 mph    
Visibility 10 miles    
Events      
Averages and records for this station are not official NWS values.
T = Trace of Precipitation, MM = Missing Value Source: NWS Daily Summary

Daily Weather History Graph

Daily Weather History Graph

Search for Another Location

Airport or City:

Trip Planner

Search our weather history database for the weather conditions in past years. The results will help you decide how hot, cold, wet, or windy it might be!

Date:

Astronomy

Feb. 25, 2014 Rise Set
Actual Time 6:58 AM CST 6:12 PM CST
Civil Twilight 6:32 AM CST 6:38 PM CST
Nautical Twilight 6:02 AM CST 7:08 PM CST
Astronomical Twilight 5:31 AM CST 7:38 PM CST
Moon 3:50 AM CST (2/25) 2:22 PM CST (2/25)
Length of Visible Light 12h 06m
Length of Day
11h 13m
Waning Crescent, 18% of the Moon is Illuminated
Feb 25
Waning Crescent
Mar 1
New
Mar 8
First Quarter
Mar 16
Full
Mar 23
Last Quarter

Hourly Weather History & Observations

Time (CST) Temp. Windchill Dew Point Humidity Pressure Visibility Wind Dir Wind Speed Gust Speed Precip Events Conditions
12:52 AM 32.0 °F 24.8 °F 16.0 °F 52% 30.24 in 10.0 mi NNE 8.1 mph - N/A   Partly Cloudy
1:52 AM 30.0 °F 24.1 °F 16.0 °F 56% 30.25 in 10.0 mi North 5.8 mph - N/A   Clear
2:52 AM 28.0 °F 22.8 °F 16.0 °F 61% 30.26 in 10.0 mi North 4.6 mph - N/A   Clear
3:52 AM 28.9 °F 23.9 °F 17.1 °F 61% 30.24 in 10.0 mi NNE 4.6 mph - N/A   Clear
4:52 AM 27.0 °F 18.7 °F 18.0 °F 69% 30.25 in 10.0 mi North 8.1 mph - N/A   Clear
5:52 AM 27.0 °F 19.5 °F 18.0 °F 69% 30.27 in 10.0 mi NNE 6.9 mph - N/A   Clear
6:52 AM 26.1 °F 16.8 °F 18.0 °F 71% 30.29 in 10.0 mi North 9.2 mph - N/A   Clear
7:52 AM 27.0 °F 19.5 °F 18.0 °F 69% 30.30 in 10.0 mi NNE 6.9 mph - N/A   Clear
8:52 AM 30.0 °F 22.4 °F 18.0 °F 61% 30.32 in 10.0 mi NNE 8.1 mph - N/A   Clear
9:52 AM 32.0 °F 24.2 °F 18.0 °F 56% 30.32 in 10.0 mi NE 9.2 mph 18.4 mph N/A   Clear
10:52 AM 34.0 °F 28.0 °F 17.1 °F 50% 30.32 in 10.0 mi Variable 6.9 mph - N/A   Clear
11:52 AM 35.1 °F 28.6 °F 17.1 °F 48% 30.33 in 10.0 mi NNE 8.1 mph - N/A   Clear
12:52 PM 37.0 °F 29.3 °F 17.1 °F 44% 30.31 in 10.0 mi North 11.5 mph 19.6 mph N/A   Clear
1:52 PM 37.9 °F 30.0 °F 17.1 °F 43% 30.28 in 10.0 mi North 12.7 mph 20.7 mph N/A   Clear
2:52 PM 39.0 °F 31.8 °F 16.0 °F 39% 30.27 in 10.0 mi NNE 11.5 mph 20.7 mph N/A   Clear
3:52 PM 37.0 °F 31.0 °F 17.1 °F 44% 30.28 in 10.0 mi NE 8.1 mph 23.0 mph N/A   Partly Cloudy
4:52 PM 33.1 °F 24.4 °F 17.1 °F 52% 30.29 in 10.0 mi NNE 11.5 mph 18.4 mph N/A   Scattered Clouds
5:52 PM 30.9 °F 22.8 °F 16.0 °F 54% 30.31 in 10.0 mi North 9.2 mph 18.4 mph N/A   Overcast
6:52 PM 28.9 °F 19.2 °F 15.1 °F 56% 30.35 in 10.0 mi NNE 11.5 mph 23.0 mph N/A   Overcast
7:52 PM 28.0 °F 18.1 °F 15.1 °F 58% 30.37 in 10.0 mi North 11.5 mph 19.6 mph N/A   Overcast
8:52 PM 26.1 °F 14.5 °F 12.0 °F 55% 30.39 in 10.0 mi North 13.8 mph 23.0 mph N/A   Overcast
9:52 PM 25.0 °F 12.6 °F 10.0 °F 53% 30.42 in 10.0 mi North 15.0 mph 21.9 mph N/A   Overcast
10:52 PM 23.0 °F 11.7 °F 10.0 °F 58% 30.44 in 10.0 mi North 11.5 mph 23.0 mph N/A   Overcast
11:52 PM 21.0 °F 5.4 °F 8.1 °F 57% 30.48 in 10.0 mi North 20.7 mph 27.6 mph N/A   Mostly Cloudy